Location: Eymir
(36.7333°N, 29.7833°E)
Time: 18:22:22
(UTC+00:00)

Cosmos 1452 Rocket - Pass Details

Date: 14 January 2026
Orbit: 762 x 771 km, 74.1° (Epoch: 17 February)

Event Time Altitude Azimuth Distance (km) Brightness Sun altitude
Exits shadow 03:27:58 35° 242° (WSW) 1,231 4.2 -20.7°
Drops below altitude 10° 03:32:03 10° 194° (SSW) 2,303 6.0 -19.9°
Sets 03:34:34 0° 186° (S) 3,224 6.8 -19.4°
